| time (UTC) | temp C | wind direction | speed KPH | gust KPH | rain 1hr cm | rain 24hr cm | rain mn cm | humidity % | barometer mb |
| 20260506154548 | 14 | 225 | 4.8 | 14.5 | 0.00 | 0.00 | 0.00 | 79 | 1021.8 |
| 20260506153045 | 13 | 254 | 4.8 | 12.9 | 0.00 | 0.00 | 0.00 | 80 | 1021.8 |
| 20260506151550 | 14 | 244 | 3.2 | 11.3 | 0.00 | 0.00 | 0.00 | 79 | 1021.8 |
| 20260506150047 | 13 | 244 | 1.6 | 9.7 | 0.00 | 0.00 | 0.00 | 81 | 1021.9 |
| 20260506144602 | 13 | 325 | 3.2 | 8.0 | 0.00 | 0.00 | 0.00 | 80 | 1021.7 |
| 20260506143050 | 13 | 22 | 3.2 | 6.4 | 0.00 | 0.00 | 0.00 | 82 | 1021.6 |
| 20260506141550 | 13 | 26 | 1.6 | 4.8 | 0.00 | 0.00 | 0.00 | 83 | 1021.4 |
| 20260506140040 | 12 | 41 | 0.0 | 3.2 | 0.00 | 0.00 | 0.00 | 85 | 1021.2 |
| 20260506134538 | 12 | 76 | 1.6 | 4.8 | 0.00 | 0.00 | 0.00 | 85 | 1021.0 |
| 20260506133049 | 12 | 51 | 1.6 | 3.2 | 0.00 | 0.00 | 0.00 | 84 | 1021.0 |
| 20260506131544 | 12 | 334 | 1.6 | 4.8 | 0.00 | 0.00 | 0.00 | 83 | 1020.9 |
| 20260506130042 | 12 | 19 | 3.2 | 8.0 | 0.00 | 0.00 | 0.00 | 83 | 1020.8 |
| 20260506124548 | 13 | 332 | 4.8 | 8.0 | 0.00 | 0.00 | 0.00 | 82 | 1020.8 |
| 20260506123052 | 13 | 319 | 1.6 | 11.3 | 0.00 | 0.00 | 0.00 | 81 | 1020.7 |
| 20260506121546 | 12 | 332 | 6.4 | 16.1 | 0.00 | 0.00 | 0.00 | 81 | 1020.6 |
| 20260506120051 | 12 | 254 | 4.8 | 12.9 | 0.00 | 0.00 | 0.00 | 81 | 1020.7 |
| 20260506114549 | 12 | 328 | 8.0 | 17.7 | 0.00 | 0.00 | 0.00 | 81 | 1020.6 |
| 20260506113048 | 12 | 310 | 8.0 | 14.5 | 0.00 | 0.00 | 0.00 | 81 | 1020.5 |
| 20260506111549 | 12 | 325 | 4.8 | 14.5 | 0.00 | 0.00 | 0.00 | 81 | 1020.4 |
| 20260506110052 | 13 | 299 | 8.0 | 14.5 | 0.00 | 0.00 | 0.00 | 81 | 1020.3 |
| 20260506104547 | 13 | 333 | 8.0 | 14.5 | 0.00 | 0.03 | 0.00 | 81 | 1020.3 |
| 20260506103042 | 13 | 341 | 9.7 | 17.7 | 0.00 | 0.03 | 0.00 | 81 | 1020.4 |
| 20260506101542 | 12 | 309 | 4.8 | 12.9 | 0.00 | 0.03 | 0.00 | 81 | 1020.2 |
| 20260506100046 | 12 | 330 | 6.4 | 14.5 | 0.00 | 0.03 | 0.00 | 82 | 1020.2 |
| 20260506094558 | 12 | 328 | 4.8 | 8.0 | 0.00 | 0.05 | 0.00 | 84 | 1020.3 |
| 20260506093046 | 12 | 328 | 4.8 | 8.0 | 0.00 | 0.05 | 0.00 | 84 | 1020.2 |
| 20260506091545 | 12 | 344 | 3.2 | 6.4 | 0.00 | 0.05 | 0.00 | 83 | 1020.3 |
| 20260506090041 | 12 | 319 | 3.2 | 6.4 | 0.00 | 0.05 | 0.00 | 83 | 1020.1 |
| 20260506084541 | 13 | 330 | 3.2 | 14.5 | 0.00 | 0.20 | 0.00 | 82 | 1020.3 |
| 20260506083042 | 13 | 312 | 9.7 | 17.7 | 0.00 | 0.20 | 0.00 | 82 | 1020.1 |
| 20260506081540 | 13 | 304 | 8.0 | 16.1 | 0.00 | 0.20 | 0.00 | 82 | 1020.3 |
| 20260506073047 | 13 | 335 | 4.8 | 16.1 | 0.00 | 0.38 | 0.00 | 82 | 1020.1 |
| 20260506071557 | 13 | 312 | 6.4 | 17.7 | 0.00 | 0.38 | 0.00 | 83 | 1020.0 |
| 20260506061543 | 13 | 301 | 4.8 | 16.1 | 0.00 | 0.43 | 0.38 | 85 | 1019.5 |
| 20260506044548 | 13 | 319 | 1.6 | 12.9 | 0.00 | 0.53 | 0.38 | 81 | 1019.1 |
| 20260506043040 | 13 | 244 | 8.0 | 17.7 | 0.00 | 0.53 | 0.38 | 81 | 1018.9 |
| 20260506041548 | 13 | 288 | 4.8 | 16.1 | 0.00 | 0.53 | 0.38 | 80 | 1018.8 |
| 20260506040050 | 13 | 266 | 8.0 | 16.1 | 0.00 | 0.53 | 0.38 | 79 | 1018.6 |
| 20260506034549 | 13 | 270 | 6.4 | 17.7 | 0.00 | 0.53 | 0.38 | 80 | 1018.4 |
| 20260506033044 | 13 | 298 | 9.7 | 20.9 | 0.00 | 0.53 | 0.38 | 80 | 1018.2 |
| 20260506031541 | 13 | 271 | 9.7 | 19.3 | 0.00 | 0.53 | 0.38 | 79 | 1018.0 |
| 20260506030041 | 14 | 284 | 12.9 | 25.7 | 0.00 | 0.53 | 0.38 | 79 | 1017.7 |
| 20260506024540 | 14 | 315 | 11.3 | 25.7 | 0.00 | 0.53 | 0.38 | 77 | 1017.7 |
| 20260506023044 | 15 | 246 | 12.9 | 25.7 | 0.00 | 0.53 | 0.38 | 75 | 1017.7 |
| 20260506021552 | 15 | 271 | 11.3 | 27.4 | 0.00 | 0.53 | 0.38 | 74 | 1017.5 |
| 20260506020042 | 15 | 248 | 12.9 | 30.6 | 0.00 | 0.53 | 0.38 | 73 | 1017.3 |
| 20260506014542 | 15 | 265 | 16.1 | 27.4 | 0.00 | 0.53 | 0.38 | 72 | 1017.2 |
| 20260506013049 | 15 | 286 | 12.9 | 22.5 | 0.00 | 0.53 | 0.38 | 73 | 1017.2 |
| 20260506011604 | 15 | 259 | 12.9 | 22.5 | 0.00 | 0.53 | 0.38 | 73 | 1017.2 |
| 20260506010046 | 15 | 310 | 11.3 | 20.9 | 0.00 | 0.53 | 0.38 | 74 | 1017.2 |
| 20260506004546 | 15 | 248 | 11.3 | 25.7 | 0.00 | 0.53 | 0.38 | 74 | 1017.1 |
| 20260506003043 | 15 | 269 | 16.1 | 27.4 | 0.00 | 0.53 | 0.38 | 73 | 1017.1 |
| 20260506001543 | 15 | 255 | 16.1 | 25.7 | 0.00 | 0.53 | 0.38 | 74 | 1016.9 |
| 20260506000054 | 15 | 254 | 16.1 | 25.7 | 0.00 | 0.53 | 0.38 | 73 | 1016.8 |
| 20260505234538 | 15 | 301 | 11.3 | 27.4 | 0.00 | 0.53 | 0.38 | 74 | 1016.9 |
| 20260505233042 | 15 | 171 | 9.7 | 22.5 | 0.00 | 0.53 | 0.38 | 74 | 1017.0 |
| 20260505231544 | 15 | 277 | 11.3 | 19.3 | 0.00 | 0.53 | 0.38 | 75 | 1017.0 |
| 20260505230042 | 15 | 294 | 12.9 | 22.5 | 0.00 | 0.53 | 0.38 | 76 | 1017.0 |
| 20260505224547 | 16 | 238 | 9.7 | 24.1 | 0.00 | 0.53 | 0.38 | 75 | 1016.8 |
| 20260505223045 | 16 | 266 | 12.9 | 27.4 | 0.00 | 0.53 | 0.38 | 74 | 1016.8 |
| 20260505221556 | 16 | 294 | 9.7 | 27.4 | 0.00 | 0.53 | 0.38 | 73 | 1016.9 |
| 20260505220055 | 16 | 310 | 17.7 | 30.6 | 0.00 | 0.53 | 0.38 | 72 | 1017.0 |
| 20260505214551 | 15 | 258 | 19.3 | 32.2 | 0.00 | 0.53 | 0.38 | 73 | 1017.2 |
| 20260505213041 | 15 | 325 | 16.1 | 29.0 | 0.00 | 0.53 | 0.38 | 73 | 1017.3 |
| 20260505211548 | 16 | 251 | 16.1 | 27.4 | 0.00 | 0.53 | 0.38 | 72 | 1017.3 |
| 20260505210051 | 16 | 275 | 12.9 | 27.4 | 0.00 | 0.53 | 0.38 | 72 | 1017.3 |
| 20260505204556 | 15 | 280 | 9.7 | 25.7 | 0.00 | 0.53 | 0.38 | 74 | 1017.2 |
| 20260505203042 | 15 | 227 | 6.4 | 24.1 | 0.00 | 0.53 | 0.38 | 76 | 1017.3 |
| 20260505201551 | 15 | 286 | 11.3 | 20.9 | 0.00 | 0.53 | 0.38 | 76 | 1017.3 |
| 20260505200049 | 15 | 234 | 8.0 | 24.1 | 0.00 | 0.53 | 0.38 | 77 | 1017.4 |
| 20260505194559 | 15 | 285 | 12.9 | 20.9 | 0.00 | 0.53 | 0.38 | 77 | 1017.4 |
| 20260505193046 | 15 | 292 | 6.4 | 22.5 | 0.00 | 0.53 | 0.38 | 78 | 1017.5 |
| 20260505191547 | 15 | 310 | 12.9 | 22.5 | 0.00 | 0.53 | 0.38 | 77 | 1017.4 |
| 20260505190048 | 15 | 265 | 8.0 | 22.5 | 0.00 | 0.53 | 0.38 | 77 | 1017.4 |
| 20260505184543 | 14 | 311 | 9.7 | 22.5 | 0.00 | 0.53 | 0.38 | 80 | 1017.3 |
| 20260505183051 | 14 | 296 | 11.3 | 20.9 | 0.00 | 0.53 | 0.38 | 83 | 1017.3 |
| 20260505181545 | 13 | 302 | 11.3 | 20.9 | 0.00 | 0.53 | 0.38 | 82 | 1017.3 |
| 20260505180045 | 13 | 265 | 12.9 | 25.7 | 0.00 | 0.53 | 0.38 | 84 | 1017.2 |
| 20260505174543 | 13 | 303 | 16.1 | 25.7 | 0.00 | 0.53 | 0.38 | 85 | 1017.1 |
| 20260505173049 | 13 | 228 | 9.7 | 22.5 | 0.00 | 0.53 | 0.38 | 87 | 1016.8 |
| 20260505171547 | 12 | 279 | 4.8 | 20.9 | 0.00 | 0.53 | 0.38 | 90 | 1016.9 |
| 20260505170046 | 12 | 271 | 6.4 | 12.9 | 0.00 | 0.53 | 0.38 | 92 | 1016.9 |
| 20260505164555 | 12 | 304 | 9.7 | 17.7 | 0.00 | 0.53 | 0.38 | 93 | 1016.9 |
| 20260505163050 | 12 | 325 | 3.2 | 11.3 | 0.00 | 0.53 | 0.38 | 94 | 1016.8 |
| 20260505161556 | 12 | 9 | 1.6 | 14.5 | 0.00 | 0.53 | 0.38 | 93 | 1016.9 |